Flag for Austria

Past Weather in Salzburg, Salzburg, Austria — Yesterday and Last 2 Weeks

Now
86 °F

Partly sunny.


Feels Like: 85 °F
Forecast: 64 / 54 °F
Wind: 3 mph from North

Location: Salzburg-Flughafen

Current Time: Jul 10, 2020 at 6:59:03 pm

Latest Report: Jul 10, 2020 at 6:00 pm


Visibility: 31 mi

Pressure: 29.77 "Hg

Humidity: 39%

Dew Point: 58 °F

Location of SalzburgLocation

Past Weather in Salzburg — Graph

°F

Salzburg Temperature Yesterday

Maximum temperature yesterday: 82 °F (at 4:00 pm)
Minimum temperature yesterday: 57 °F (at 6:00 am)
Average temperature yesterday: 71 °F

High & Low Weather Summary for the Past Weeks

 TemperatureHumidityPressure
High89 °F (Jul 10, 3:00 pm)98% (Jun 29, 4:00 am)30.20 "Hg (Jun 29, 4:00 am)
Low52 °F (Jun 26, 5:00 am)29% (Jul 10, 1:00 pm)29.75 "Hg (Jul 1, 4:00 pm)
Average68 °F69%29.98 "Hg
* Reported Jun 25 5:00 pm — Jul 10 5:00 pm, Salzburg. Weather by CustomWeather, © 2020

Note: Actual official high and low records may vary slightly from our data, if they occured in-between our weather recording intervals... More about our weather records

Salzburg Weather History for the Previous 24 Hours

Scroll right to see more
 ConditionsComfort  
Time TempWeatherWind HumidityBarometerVisibility
5:00 pm
Fri, Jul 10
87 °FPartly sunny.5 mph39%29.78 "Hg31 mi
4:00 pm88 °FPartly sunny.5 mph32%29.78 "Hg31 mi
3:00 pm89 °FPartly sunny.3 mph32%29.78 "Hg31 mi
1:00 pm89 °FPartly sunny.2 mph29%29.81 "Hg31 mi
12:00 pm85 °FScattered clouds.2 mph37%29.83 "Hg34 mi
11:00 am82 °FScattered clouds.3 mph48%29.86 "Hg31 mi
10:00 am78 °FPassing clouds.3 mph54%29.88 "Hg25 mi
9:00 am75 °FPassing clouds.5 mph61%29.90 "Hg28 mi
7:00 am67 °FPassing clouds.7 mph71%29.93 "Hg31 mi
6:00 am65 °FPassing clouds.7 mph75%29.94 "Hg37 mi
5:00 am65 °FMild.6 mph76%29.94 "Hg34 mi
4:00 am65 °FMild.6 mph77%29.95 "Hg34 mi
3:00 am65 °FMild.5 mph76%29.96 "Hg34 mi
2:00 am65 °FPassing clouds.5 mph76%29.97 "Hg34 mi
1:00 am67 °FMild.5 mph73%29.97 "Hg34 mi
12:00 am66 °FMild.3 mph76%29.97 "Hg34 mi
11:00 pm
Thu, Jul 9
67 °FMild.3 mph71%29.96 "Hg34 mi
10:00 pm69 °FPassing clouds.2 mph69%29.95 "Hg7 mi
9:00 pm75 °FPassing clouds.1 mph65%29.92 "Hg37 mi
8:00 pm81 °FPassing clouds.1 mph45%29.90 "Hg37 mi
7:00 pm81 °FPassing clouds.2 mph41%29.91 "Hg34 mi
6:00 pm81 °FScattered clouds.3 mph41%29.92 "Hg34 mi
Weather by CustomWeather, © 2020

See weather overview